Back to catalog

NOAA 16 DEB

AlivePO
NORAD 41304·DEBRIS·🇺🇸 United States

Launched Sep 21, 2000 from Vandenberg Space Force Base

Loading…

Next Passes (next 24 hours)

TLE

FreshSource: Space-Track

Epoch: Sep 12, 2026, 22:17 UTC

1 41304U 00055HG  26255.92872679  .00003925  00000-0  13147-2 0  9999
2 41304  99.0840  68.1637 0031182  18.1649 342.0642 14.37661101553104

Track NOAA 16 DEB in real time with AllMySat

Download on the App Store